Flag for Indonesia Weather past 2 weeks in Manado, North Sulawesi, Indonesia

Now
77 °F

Passing clouds.


Feels Like: 78 °F
Forecast: 76 / 88 °F
Wind: 5 mph from Southeast

Location: Menado / Dr. Sam Ratulangi

Current Time: Sep 2, 2014 at 8:33:35 AM

Latest Report: Sep 2, 2014 at 7:00 AM


Visibility: N/A

Pressure: 29.89 "Hg

Humidity: 83%

Dew point: 72 °F

Location of ManadoLocation

Historic Weather in Manado — Graph

°F

Manado temperature yesterday

Maximum temperature yesterday: 90 °F (at 12:30 PM)
Minimum temperature yesterday: 73 °F (at 5:00 AM)
Average temperature yesterday: 82 °F

Past Weeks' High & Low Weather Summary

 TemperatureHumidityPressure
High91 °F (Aug 21, 1:00 PM)100% (Aug 20, 4:30 AM)29.95 "Hg (Aug 20, 4:30 AM)
Low70 °F (Aug 20, 4:30 AM)43% (Aug 22, 3:30 PM)29.74 "Hg (Aug 25, 2:30 PM)
Average80 °F75%29.84 "Hg
* Reported Aug 18 7:00 AM — Sep 2 7:00 AM, Manado, Weather by CustomWeather, © 2014

Note: Actual official high and low records may vary slightly from our data, if they occured in-between our weather recording intervals... More about our weather records

Advertising

Manado weather history for previous 24 hours

 ConditionsComfort  
Time TempWeatherWind HumidityBarometerVisibility
7:00 AM
Sep 2
77 °FPassing clouds.5 mph83%29.89 "HgN/A
6:30 AM77 °FPassing clouds.5 mph79%29.89 "HgN/A
5:30 AM73 °FPassing clouds.2 mph89%29.86 "HgN/A
5:00 AM75 °FPassing clouds.5 mph83%29.86 "HgN/A
11:00 PM
Sep 1
77 °FPassing clouds.5 mph83%29.89 "HgN/A
10:30 PM77 °FPassing clouds.3 mph83%29.89 "HgN/A
10:00 PM77 °FPassing clouds.5 mph83%29.89 "HgN/A
9:30 PM77 °FPassing clouds.6 mph83%29.89 "HgN/A
9:00 PM77 °FPassing clouds.6 mph83%29.89 "HgN/A
8:30 PM79 °FPassing clouds.5 mph79%29.86 "HgN/A
8:00 PM79 °FPassing clouds.7 mph79%29.86 "HgN/A
7:30 PM79 °FPassing clouds.7 mph79%29.86 "HgN/A
7:00 PM81 °FPassing clouds.6 mph74%29.83 "HgN/A
6:30 PM81 °FPassing clouds.5 mph74%29.83 "HgN/A
6:00 PM81 °FPassing clouds.5 mph74%29.83 "HgN/A
5:30 PM82 °FScattered clouds.6 mph70%29.80 "HgN/A
5:00 PM84 °FScattered clouds.3 mph66%29.80 "HgN/A
4:30 PM86 °FScattered clouds.3 mph66%29.77 "HgN/A
4:00 PM88 °FScattered clouds.5 mph62%29.77 "HgN/A
3:30 PM88 °FScattered clouds.5 mph62%29.77 "HgN/A
3:00 PM86 °FScattered clouds.5 mph66%29.77 "HgN/A
2:30 PM88 °FPassing clouds.6 mph62%29.77 "HgN/A
2:00 PM88 °FPassing clouds.5 mph62%29.77 "HgN/A
1:30 PM88 °FPassing clouds.3 mph62%29.80 "HgN/A
1:00 PM90 °FPassing clouds.3 mph59%29.80 "HgN/A
12:30 PM90 °FPassing clouds.3 mph55%29.80 "HgN/A
12:00 PM88 °FPassing clouds.5 mph59%29.80 "HgN/A
11:30 AM88 °FPassing clouds.7 mph62%29.83 "HgN/A
11:00 AM88 °FPassing clouds.3 mph55%29.83 "HgN/A
10:30 AM88 °FPassing clouds.3 mph59%29.83 "HgN/A
10:00 AM86 °FPassing clouds.2 mph62%29.86 "HgN/A
9:30 AM84 °FPassing clouds.5 mph66%29.86 "HgN/A
9:00 AM82 °FPassing clouds.3 mph66%29.89 "HgN/A
8:30 AM81 °FPassing clouds.5 mph74%29.89 "HgN/A
Weather by CustomWeather, © 2014

See weather overviewHow to use our weather pages